FENGYUN 1C DEB

Satellite information

Favourite Embed

Satellite Type and Status

DEBRISIN ORBIT

Key statistics

Satellite FENGYUN 1C DEB at a glance.

Uptime

9664

Days in orbit

Revolutions

≈ 14.0

Per day

Orbit

SSO

Sun Synchronous Orbit

Inclination

98.8

Latest

Satellite identification and parameters

Extended collection of information and parameters for FENGYUN 1C DEB.

Object identification

Identified? True

Debris? True

Object name: FENGYUN 1C DEB

International designator: 1999-025CW

Object number (NORAD): 29804

Object ID (CCSDS): 29804

Country: PEOPLES REPUBLIC OF CHINA (PRC)

Current information (Y/N): Y

RCS size: SMALL

Orbital parameters

Period: 102.542 minutes

Inclination: 98.8077 deg

SMA: 7257.078 km

Apoapsis: 950.986 km

Periapsis: 806.901 km

RAAN: 306.5987 deg

Eccentricy: 0.00992723

Argument of periapsis: 81.2279 deg

Mean anomaly: 41.452 deg

Mean motion: 14.04300471 rev/day

Mean motion (dot): -0.00000118 rev/day2

B* drag term: -0.0000455806 1/REarth

Two-line elements (TLE)

Creation date: Oct. 24, 2025, 2:48 a.m.

Reference frame: TEME

Reference center: EARTH

Epoch: Oct. 23, 2025, 9:05 p.m. UTC

TLE line 0: 0 FENGYUN 1C DEB

TLE line 1: 1 29804U 99025CW 25296.87885626 -.00000118 00000-0 -45581-4 0 9991

TLE line 2: 2 29804 98.8077 306.5987 0099272 81.2279 41.4520 14.04300471961949

Live tracking on map

Real-time ground track for satellite FENGYUN 1C DEB.

In-orbit conjunctions

A list of the most updated potential collisions computed for object FENGYUN 1C DEB.

Target Orbit TCA Probability of collision Miss distance Type
TEMPSAT 2 LEO 2025-04-22 21:47:35 0.0001841504 160.0 (m) PAYLOAD
THORAD AGENA D DEB SSO 2025-04-16 08:30:46 0.0001274831 79.0 (m) DEBRIS

Associated space launch

Chinese polar orbiting meteorological satellite

FENGYUN 1C DEB was lifted into orbit during the mission ‘Long March 4B | Feng Yun 1C’, on board a Long March 4B space rocket.

The launch took place on May 10, 1999, 1:33 a.m. from Launch Complex 7.

For more information about the launch, click the button.

Launch to space Long March 4B | Feng Yun 1C
Long March 4B | Feng Yun 1C

Agency: N/A

Status: Launch Successful

Launch date: May 10, 1999, 1:33 a.m. UTC

Rocket: Long March 4B

Launch pad: Launch Complex 7

Location: Taiyuan Satellite Launch Center, People's Republic of China

...

Latest news about this satellite

There are no fresh news available about this satellite. Check back as we update our databases every day.


Newsletter sign-up

Weekly statistics, charts and insights to help you stay on top of the space industry.